| time (UTC) | temp F | wind direction | speed knots | gust knots | rain 1hr in | rain 24hr in | rain mn in | humidity % | barometer mb |
| 20260510203007 | 71 | 184 | 2.6 | 6.1 | 0.00 | 0.00 | 0.00 | 37 | 1015.3 |
| 20260510201945 | 71 | 107 | 2.6 | 5.2 | 0.00 | 0.00 | 0.00 | 41 | 1015.8 |
| 20260510201523 | 71 | 161 | 2.6 | 5.2 | 0.00 | 0.00 | 0.00 | 39 | 1015.5 |
| 20260510201444 | 72 | 126 | 1.7 | 5.2 | 0.00 | 0.00 | 0.00 | 39 | 1015.9 |
| 20260510200928 | 72 | 72 | 1.7 | 6.1 | 0.00 | 0.00 | 0.00 | 42 | 1015.9 |
| 20260510200426 | 72 | 319 | 1.7 | 6.1 | 0.00 | 0.00 | 0.00 | 38 | 1016.0 |
| 20260510200420 | 72 | 336 | 1.7 | 5.2 | 0.00 | 0.00 | 0.00 | 41 | 1016.0 |
| 20260510200007 | 71 | 342 | 1.7 | 5.2 | 0.00 | 0.00 | 0.00 | 41 | 1015.6 |
| 20260510195426 | 71 | 345 | 1.7 | 7.0 | 0.00 | 0.00 | 0.00 | 40 | 1015.9 |
| 20260510194927 | 70 | 243 | 2.6 | 9.6 | 0.00 | 0.00 | 0.00 | 40 | 1015.9 |
| 20260510194527 | 70 | 223 | 2.6 | 9.6 | 0.00 | 0.00 | 0.00 | 40 | 1015.4 |
| 20260510194401 | 71 | 119 | 2.6 | 9.6 | 0.00 | 0.00 | 0.00 | 45 | 1015.9 |
| 20260510193901 | 71 | 241 | 1.7 | 5.2 | 0.00 | 0.00 | 0.00 | 39 | 1015.9 |
| 20260510193402 | 71 | 142 | 1.7 | 6.1 | 0.00 | 0.00 | 0.00 | 41 | 1015.9 |
| 20260510193025 | 71 | 142 | 1.7 | 6.1 | 0.00 | 0.00 | 0.00 | 39 | 1015.6 |
| 20260510192838 | 72 | 202 | 2.6 | 6.1 | 0.00 | 0.00 | 0.00 | 37 | 1016.0 |
| 20260510192311 | 71 | 297 | 2.6 | 6.1 | 0.00 | 0.00 | 0.00 | 42 | 1016.0 |
| 20260510191747 | 71 | 143 | 2.6 | 7.8 | 0.00 | 0.00 | 0.00 | 40 | 1016.0 |
| 20260510191502 | 71 | 232 | 0.9 | 7.8 | 0.00 | 0.00 | 0.00 | 43 | 1015.4 |
| 20260510191222 | 71 | 339 | 1.7 | 7.0 | 0.00 | 0.00 | 0.00 | 41 | 1015.9 |
| 20260510190918 | 71 | 227 | 2.6 | 6.1 | 0.00 | 0.00 | 0.00 | 37 | 1015.8 |
| 20260510190200 | 71 | 163 | 2.6 | 8.7 | 0.00 | 0.00 | 0.00 | 42 | 1015.9 |
| 20260510190042 | 70 | 161 | 0.9 | 8.7 | 0.00 | 0.00 | 0.00 | 40 | 1015.5 |
| 20260510185636 | 70 | 215 | 1.7 | 4.3 | 0.00 | 0.00 | 0.00 | 43 | 1015.8 |
| 20260510185340 | 70 | 204 | 2.6 | 6.1 | 0.00 | 0.00 | 0.00 | 40 | 1015.8 |
| 20260510184550 | 70 | 184 | 2.6 | 6.1 | 0.00 | 0.00 | 0.00 | 38 | 1015.8 |
| 20260510184535 | 70 | 184 | 0.9 | 6.1 | 0.00 | 0.00 | 0.00 | 37 | 1015.4 |
| 20260510184026 | 71 | 309 | 2.6 | 7.0 | 0.00 | 0.00 | 0.00 | 39 | 1015.8 |
| 20260510183504 | 70 | 191 | 2.6 | 7.0 | 0.00 | 0.00 | 0.00 | 43 | 1015.9 |
| 20260510183015 | 70 | 155 | 2.6 | 7.0 | 0.00 | 0.00 | 0.00 | 42 | 1015.4 |
| 20260510182956 | 70 | 206 | 2.6 | 7.0 | 0.00 | 0.00 | 0.00 | 42 | 1015.9 |
| 20260510182456 | 70 | 198 | 2.6 | 8.7 | 0.00 | 0.00 | 0.00 | 45 | 1015.9 |
| 20260510181929 | 71 | 153 | 2.6 | 7.0 | 0.00 | 0.00 | 0.00 | 42 | 1016.0 |
| 20260510181605 | 70 | 231 | 1.7 | 4.3 | 0.00 | 0.00 | 0.00 | 43 | 1015.6 |
| 20260510181403 | 70 | 263 | 2.6 | 7.8 | 0.00 | 0.00 | 0.00 | 41 | 1016.0 |
| 20260510180838 | 70 | 334 | 2.6 | 7.8 | 0.00 | 0.00 | 0.00 | 41 | 1016.0 |
| 20260510180332 | 70 | 10 | 1.7 | 5.2 | 0.00 | 0.00 | 0.00 | 40 | 1015.9 |
| 20260510180024 | 69 | 261 | 0.9 | 4.3 | 0.00 | 0.00 | 0.00 | 44 | 1015.5 |
| 20260510175830 | 69 | 249 | 2.6 | 5.2 | 0.00 | 0.00 | 0.00 | 39 | 1015.8 |
| 20260510175327 | 69 | 240 | 2.6 | 7.8 | 0.00 | 0.00 | 0.00 | 41 | 1015.9 |
| 20260510174824 | 69 | 225 | 2.6 | 7.8 | 0.00 | 0.00 | 0.00 | 41 | 1015.9 |
| 20260510174541 | 69 | 300 | 2.6 | 8.7 | 0.00 | 0.00 | 0.00 | 41 | 1016.0 |
| 20260510174509 | 69 | 186 | 2.6 | 7.8 | 0.00 | 0.00 | 0.00 | 43 | 1015.5 |
| 20260510173755 | 69 | 349 | 2.6 | 8.7 | 0.00 | 0.00 | 0.00 | 40 | 1016.0 |
| 20260510173250 | 69 | 347 | 1.7 | 6.1 | 0.00 | 0.00 | 0.00 | 42 | 1016.0 |
| 20260510173013 | 69 | 355 | 1.7 | 5.2 | 0.00 | 0.00 | 0.00 | 42 | 1015.7 |
| 20260510173001 | 69 | 63 | 1.7 | 3.5 | 0.00 | 0.00 | 0.00 | 43 | 1016.2 |
| 20260510172244 | 69 | 124 | 1.7 | 6.1 | 0.00 | 0.00 | 0.00 | 41 | 1016.1 |
| 20260510171739 | 70 | 192 | 1.7 | 6.1 | 0.00 | 0.00 | 0.00 | 39 | 1016.0 |
| 20260510171501 | 70 | 205 | 2.6 | 6.1 | 0.00 | 0.00 | 0.00 | 43 | 1015.5 |
| 20260510171233 | 70 | 230 | 1.7 | 3.5 | 0.00 | 0.00 | 0.00 | 43 | 1015.9 |
| 20260510170731 | 70 | 273 | 1.7 | 4.3 | 0.00 | 0.00 | 0.00 | 44 | 1015.7 |
| 20260510170229 | 69 | 309 | 2.6 | 4.3 | 0.00 | 0.00 | 0.00 | 43 | 1015.7 |
| 20260510170027 | 69 | 209 | 1.7 | 4.3 | 0.00 | 0.00 | 0.00 | 42 | 1015.4 |
| 20260510165952 | 69 | 234 | 1.7 | 4.3 | 0.00 | 0.00 | 0.00 | 43 | 1015.8 |
| 20260510165226 | 69 | 44 | 1.7 | 4.3 | 0.00 | 0.00 | 0.00 | 44 | 1015.8 |
| 20260510164723 | 69 | 354 | 1.7 | 5.2 | 0.00 | 0.00 | 0.00 | 43 | 1015.8 |
| 20260510164554 | 69 | 355 | 1.7 | 4.3 | 0.00 | 0.00 | 0.00 | 44 | 1015.4 |
| 20260510164157 | 69 | 55 | 1.7 | 5.2 | 0.00 | 0.00 | 0.00 | 44 | 1015.8 |
| 20260510163652 | 68 | 50 | 2.6 | 7.8 | 0.00 | 0.00 | 0.00 | 47 | 1016.0 |
| 20260510163122 | 68 | 324 | 3.5 | 7.8 | 0.00 | 0.00 | 0.00 | 44 | 1015.9 |
| 20260510163031 | 67 | 285 | 1.7 | 7.8 | 0.00 | 0.00 | 0.00 | 44 | 1015.5 |
| 20260510162621 | 68 | 2 | 3.5 | 8.7 | 0.00 | 0.00 | 0.00 | 44 | 1016.0 |
| 20260510162055 | 68 | 317 | 2.6 | 8.7 | 0.00 | 0.00 | 0.00 | 42 | 1016.0 |
| 20260510161608 | 68 | 6 | 1.7 | 5.2 | 0.00 | 0.00 | 0.00 | 45 | 1015.6 |
| 20260510161551 | 68 | 8 | 2.6 | 5.2 | 0.00 | 0.00 | 0.00 | 45 | 1016.0 |
| 20260510161048 | 68 | 16 | 2.6 | 7.8 | 0.00 | 0.00 | 0.00 | 42 | 1015.9 |
| 20260510160746 | 68 | 324 | 2.6 | 7.8 | 0.00 | 0.00 | 0.00 | 41 | 1015.8 |
| 20260510160039 | 68 | 342 | 2.6 | 5.2 | 0.00 | 0.00 | 0.00 | 45 | 1015.3 |
| 20260510160019 | 68 | 343 | 1.7 | 5.2 | 0.00 | 0.00 | 0.00 | 45 | 1015.7 |
| 20260510155517 | 68 | 0 | 2.6 | 8.7 | 0.00 | 0.00 | 0.00 | 44 | 1015.7 |
| 20260510155013 | 67 | 338 | 2.6 | 8.7 | 0.00 | 0.00 | 0.00 | 48 | 1015.7 |
| 20260510154635 | 67 | 355 | 3.5 | 8.7 | 0.00 | 0.00 | 0.00 | 43 | 1015.4 |
| 20260510154507 | 67 | 25 | 2.6 | 7.0 | 0.00 | 0.00 | 0.00 | 44 | 1015.9 |
| 20260510154005 | 67 | 321 | 2.6 | 6.1 | 0.00 | 0.00 | 0.00 | 45 | 1015.9 |
| 20260510153502 | 67 | 344 | 1.7 | 7.8 | 0.00 | 0.00 | 0.00 | 46 | 1015.8 |
| 20260510153217 | 67 | 305 | 2.6 | 7.8 | 0.00 | 0.00 | 0.00 | 43 | 1015.8 |
| 20260510153019 | 67 | 327 | 1.7 | 7.8 | 0.00 | 0.00 | 0.00 | 43 | 1015.4 |
| 20260510152458 | 67 | 305 | 2.6 | 5.2 | 0.00 | 0.00 | 0.00 | 44 | 1015.7 |
| 20260510151929 | 67 | 209 | 2.6 | 7.0 | 0.00 | 0.00 | 0.00 | 46 | 1015.7 |
| 20260510151512 | 66 | 353 | 2.6 | 7.0 | 0.00 | 0.00 | 0.00 | 47 | 1015.2 |
| 20260510151426 | 67 | 312 | 2.6 | 7.0 | 0.00 | 0.00 | 0.00 | 45 | 1015.5 |
| 20260510151147 | 67 | 328 | 2.6 | 7.0 | 0.00 | 0.00 | 0.00 | 47 | 1015.5 |
| 20260510150421 | 66 | 201 | 2.6 | 7.0 | 0.00 | 0.00 | 0.00 | 45 | 1015.4 |
| 20260510150108 | 66 | 310 | 2.6 | 7.0 | 0.00 | 0.00 | 0.00 | 45 | 1015.0 |
| 20260510145854 | 66 | 347 | 1.7 | 6.1 | 0.00 | 0.00 | 0.00 | 46 | 1015.3 |
| 20260510145327 | 66 | 309 | 2.6 | 7.8 | 0.00 | 0.00 | 0.00 | 46 | 1015.3 |
| 20260510145041 | 66 | 326 | 1.7 | 7.8 | 0.00 | 0.00 | 0.00 | 44 | 1015.4 |
| 20260510144516 | 65 | 334 | 1.7 | 5.2 | 0.00 | 0.00 | 0.00 | 50 | 1015.0 |
| 20260510144323 | 66 | 332 | 2.6 | 6.1 | 0.00 | 0.00 | 0.00 | 50 | 1015.3 |
| 20260510143819 | 65 | 335 | 2.6 | 6.1 | 0.00 | 0.00 | 0.00 | 48 | 1015.3 |
| 20260510143317 | 65 | 347 | 1.7 | 8.7 | 0.00 | 0.00 | 0.00 | 48 | 1015.3 |
| 20260510143028 | 65 | 330 | 1.7 | 8.7 | 0.00 | 0.00 | 0.00 | 49 | 1014.8 |
| 20260510142753 | 65 | 310 | 2.6 | 8.7 | 0.00 | 0.00 | 0.00 | 51 | 1015.2 |
| 20260510142227 | 64 | 303 | 2.6 | 6.1 | 0.00 | 0.00 | 0.00 | 52 | 1015.0 |
| 20260510141920 | 64 | 335 | 2.6 | 6.1 | 0.00 | 0.00 | 0.00 | 54 | 1015.0 |
| 20260510141534 | 64 | 335 | 2.6 | 6.1 | 0.00 | 0.00 | 0.00 | 52 | 1014.6 |
| 20260510141133 | 64 | 341 | 1.7 | 5.2 | 0.00 | 0.00 | 0.00 | 53 | 1015.0 |
| 20260510140607 | 64 | 2 | 1.7 | 5.2 | 0.00 | 0.00 | 0.00 | 55 | 1015.0 |
| 20260510140304 | 64 | 331 | 1.7 | 3.5 | 0.00 | 0.00 | 0.00 | 55 | 1014.8 |
| 20260510140011 | 63 | 331 | 1.7 | 3.5 | 0.00 | 0.00 | 0.00 | 55 | 1014.4 |
| 20260510135514 | 63 | 338 | 1.7 | 4.3 | 0.00 | 0.00 | 0.00 | 57 | 1014.6 |
| 20260510135012 | 63 | 336 | 2.6 | 6.1 | 0.00 | 0.00 | 0.00 | 54 | 1014.5 |
| 20260510134507 | 63 | 10 | 1.7 | 6.1 | 0.00 | 0.00 | 0.00 | 55 | 1014.2 |
| 20260510134442 | 63 | 10 | 2.6 | 6.1 | 0.00 | 0.00 | 0.00 | 55 | 1014.5 |
| 20260510133943 | 63 | 324 | 1.7 | 5.2 | 0.00 | 0.00 | 0.00 | 57 | 1014.4 |
| 20260510133439 | 63 | 334 | 2.6 | 9.6 | 0.00 | 0.00 | 0.00 | 57 | 1014.2 |
| 20260510133041 | 62 | 351 | 1.7 | 7.0 | 0.00 | 0.00 | 0.00 | 59 | 1013.7 |
| 20260510132912 | 62 | 333 | 3.5 | 8.7 | 0.00 | 0.00 | 0.00 | 59 | 1014.1 |
| 20260510132410 | 62 | 354 | 2.6 | 9.6 | 0.00 | 0.00 | 0.00 | 59 | 1013.9 |
| 20260510131908 | 62 | 349 | 2.6 | 6.1 | 0.00 | 0.00 | 0.00 | 61 | 1013.8 |
| 20260510131602 | 62 | 340 | 3.5 | 6.1 | 0.00 | 0.00 | 0.00 | 61 | 1013.8 |
| 20260510131509 | 61 | 349 | 1.7 | 5.2 | 0.00 | 0.00 | 0.00 | 61 | 1013.3 |
| 20260510130839 | 61 | 358 | 2.6 | 6.1 | 0.00 | 0.00 | 0.00 | 62 | 1013.7 |
| 20260510130310 | 61 | 298 | 2.6 | 8.7 | 0.00 | 0.00 | 0.00 | 64 | 1013.6 |
| 20260510130107 | 60 | 313 | 1.7 | 8.7 | 0.00 | 0.00 | 0.00 | 66 | 1013.3 |
| 20260510125806 | 60 | 297 | 2.6 | 8.7 | 0.00 | 0.00 | 0.00 | 65 | 1013.6 |
| 20260510125241 | 60 | 284 | 2.6 | 5.2 | 0.00 | 0.00 | 0.00 | 66 | 1013.5 |
| 20260510124717 | 59 | 340 | 1.7 | 6.1 | 0.00 | 0.00 | 0.00 | 68 | 1013.5 |
| 20260510124534 | 58 | 338 | 1.7 | 5.2 | 0.00 | 0.00 | 0.00 | 69 | 1013.0 |
| 20260510124147 | 59 | 286 | 1.7 | 6.1 | 0.00 | 0.00 | 0.00 | 70 | 1013.4 |
| 20260510123647 | 58 | 283 | 0.9 | 3.5 | 0.00 | 0.00 | 0.00 | 71 | 1013.3 |
| 20260510123335 | 58 | 284 | 1.7 | 3.5 | 0.00 | 0.00 | 0.00 | 71 | 1013.2 |
| 20260510123025 | 58 | 284 | 0.9 | 3.5 | 0.00 | 0.00 | 0.00 | 71 | 1012.8 |
| 20260510122617 | 58 | 284 | 1.7 | 6.1 | 0.00 | 0.00 | 0.00 | 72 | 1013.2 |
| 20260510122048 | 58 | 284 | 1.7 | 6.1 | 0.00 | 0.00 | 0.00 | 72 | 1013.1 |
| 20260510121806 | 57 | 285 | 1.7 | 5.2 | 0.00 | 0.00 | 0.00 | 72 | 1013.1 |
| 20260510121515 | 57 | 285 | 0.9 | 5.2 | 0.00 | 0.00 | 0.00 | 72 | 1012.6 |
| 20260510121018 | 57 | 284 | 1.7 | 4.3 | 0.00 | 0.00 | 0.00 | 73 | 1012.8 |
| 20260510120450 | 57 | 283 | 2.6 | 4.3 | 0.00 | 0.00 | 0.00 | 73 | 1012.6 |
| 20260510120015 | 56 | 283 | 1.7 | 4.3 | 0.00 | 0.01 | 0.00 | 73 | 1012.2 |
| 20260510115925 | 57 | 283 | 2.6 | 6.1 | 0.00 | 0.00 | 0.00 | 73 | 1012.6 |
| 20260510115638 | 57 | 284 | 2.6 | 6.1 | 0.00 | 0.00 | 0.00 | 73 | 1012.3 |
| 20260510114916 | 57 | 285 | 2.6 | 6.1 | 0.00 | 0.00 | 0.00 | 74 | 1012.3 |
| 20260510114524 | 56 | 284 | 1.7 | 5.2 | 0.00 | 0.01 | 0.00 | 74 | 1012.0 |
| 20260510114346 | 57 | 284 | 2.6 | 6.1 | 0.00 | 0.00 | 0.00 | 74 | 1012.5 |
| 20260510114108 | 57 | 284 | 1.7 | 4.3 | 0.00 | 0.00 | 0.00 | 75 | 1012.5 |
| 20260510113319 | 57 | 284 | 1.7 | 6.1 | 0.00 | 0.00 | 0.00 | 75 | 1012.5 |
| 20260510113029 | 56 | 284 | 1.7 | 5.2 | 0.00 | 0.01 | 0.00 | 75 | 1012.1 |
| 20260510112750 | 56 | 284 | 1.7 | 2.6 | 0.00 | 0.00 | 0.00 | 76 | 1012.5 |
| 20260510112733 | 56 | 284 | 1.7 | 3.5 | 0.00 | 0.00 | 0.00 | 76 | 1012.2 |
| 20260510111720 | 57 | 284 | 0.9 | 3.5 | 0.00 | 0.00 | 0.00 | 76 | 1012.4 |
| 20260510111519 | 56 | 284 | 0.9 | 3.5 | 0.00 | 0.01 | 0.00 | 77 | 1012.3 |
| 20260510111219 | 57 | 285 | 0.9 | 1.7 | 0.00 | 0.00 | 0.00 | 77 | 1012.6 |
| 20260510110659 | 57 | 285 | 0.9 | 1.7 | 0.00 | 0.00 | 0.00 | 79 | 1012.6 |
| 20260510110128 | 57 | 286 | 0.9 | 1.7 | 0.00 | 0.01 | 0.00 | 79 | 1012.5 |
| 20260510110057 | 57 | 286 | 0.0 | 1.7 | 0.00 | 0.01 | 0.00 | 78 | 1012.2 |
| 20260510105602 | 57 | 286 | 0.9 | 2.6 | 0.00 | 0.01 | 0.00 | 76 | 1012.3 |
| 20260510105034 | 57 | 285 | 0.9 | 3.5 | 0.00 | 0.01 | 0.00 | 75 | 1012.0 |
| 20260510104601 | 57 | 282 | 1.7 | 7.0 | 0.00 | 0.04 | 0.00 | 75 | 1011.5 |
| 20260510104508 | 57 | 283 | 1.7 | 7.0 | 0.00 | 0.01 | 0.00 | 75 | 1011.8 |
| 20260510103944 | 57 | 283 | 0.9 | 7.0 | 0.00 | 0.01 | 0.00 | 75 | 1011.6 |
| 20260510103415 | 57 | 284 | 1.7 | 7.0 | 0.00 | 0.02 | 0.00 | 76 | 1011.6 |
| 20260510103106 | 57 | 287 | 0.9 | 7.0 | 0.00 | 0.04 | 0.00 | 76 | 1011.1 |
| 20260510102915 | 58 | 287 | 1.7 | 7.0 | 0.00 | 0.02 | 0.00 | 76 | 1011.5 |
| 20260510102346 | 58 | 284 | 1.7 | 9.6 | 0.00 | 0.02 | 0.00 | 76 | 1011.5 |
| 20260510102047 | 58 | 284 | 1.7 | 9.6 | 0.00 | 0.02 | 0.00 | 77 | 1011.4 |
| 20260510101532 | 57 | 284 | 2.6 | 9.6 | 0.00 | 0.04 | 0.00 | 77 | 1010.9 |
| 20260510101253 | 58 | 286 | 1.7 | 4.3 | 0.00 | 0.03 | 0.00 | 78 | 1011.3 |
| 20260510100751 | 58 | 286 | 1.7 | 6.1 | 0.00 | 0.03 | 0.00 | 78 | 1011.3 |
| 20260510100223 | 58 | 288 | 1.7 | 6.1 | 0.00 | 0.04 | 0.00 | 79 | 1011.2 |
| 20260510100022 | 58 | 288 | 1.7 | 5.2 | 0.00 | 0.04 | 0.00 | 79 | 1010.7 |
| 20260510095943 | 58 | 289 | 1.7 | 2.6 | 0.00 | 0.04 | 0.00 | 79 | 1011.1 |
| 20260510095152 | 58 | 290 | 1.7 | 2.6 | 0.00 | 0.04 | 0.00 | 79 | 1011.1 |
| 20260510094646 | 59 | 291 | 1.7 | 3.5 | 0.00 | 0.05 | 0.00 | 80 | 1011.1 |
| 20260510094610 | 58 | 291 | 0.9 | 3.5 | 0.00 | 0.07 | 0.00 | 80 | 1010.6 |
| 20260510094145 | 59 | 290 | 0.9 | 3.5 | 0.00 | 0.05 | 0.00 | 80 | 1011.1 |
| 20260510093621 | 59 | 273 | 0.9 | 1.7 | 0.00 | 0.05 | 0.00 | 80 | 1011.0 |
| 20260510093054 | 59 | 273 | 0.9 | 2.6 | 0.00 | 0.06 | 0.00 | 79 | 1011.1 |
| 20260510093002 | 59 | 273 | 0.9 | 2.6 | 0.00 | 0.07 | 0.00 | 79 | 1010.7 |
| 20260510092552 | 60 | 273 | 0.9 | 2.6 | 0.00 | 0.06 | 0.00 | 79 | 1011.0 |
| 20260510092029 | 60 | 288 | 0.9 | 2.6 | 0.00 | 0.06 | 0.00 | 78 | 1010.9 |
| 20260510091543 | 59 | 290 | 0.9 | 3.5 | 0.00 | 0.07 | 0.00 | 78 | 1010.4 |
| 20260510091523 | 60 | 290 | 1.7 | 3.5 | 0.00 | 0.06 | 0.00 | 78 | 1010.8 |
| 20260510091022 | 59 | 290 | 1.7 | 3.5 | 0.00 | 0.06 | 0.00 | 79 | 1010.7 |
| 20260510090457 | 60 | 290 | 0.9 | 2.6 | 0.00 | 0.06 | 0.00 | 78 | 1010.7 |
| 20260510090055 | 59 | 290 | 0.9 | 2.6 | 0.00 | 0.07 | 0.00 | 77 | 1010.3 |
| 20260510085928 | 60 | 290 | 0.9 | 2.6 | 0.00 | 0.07 | 0.00 | 77 | 1010.7 |
| 20260510085427 | 60 | 273 | 0.0 | 0.9 | 0.00 | 0.07 | 0.00 | 77 | 1010.6 |
| 20260510085132 | 60 | 290 | 0.0 | 0.9 | 0.00 | 0.07 | 0.00 | 77 | 1010.5 |
| 20260510084629 | 60 | 273 | 0.9 | 1.7 | 0.00 | 0.08 | 0.00 | 77 | 1010.5 |
| 20260510084555 | 59 | 273 | 0.0 | 1.7 | 0.00 | 0.10 | 0.00 | 77 | 1010.1 |
| 20260510084059 | 60 | 290 | 0.9 | 1.7 | 0.00 | 0.08 | 0.00 | 77 | 1010.5 |
| 20260510083537 | 60 | 273 | 0.0 | 1.7 | 0.00 | 0.08 | 0.00 | 77 | 1010.4 |
| 20260510083007 | 59 | 273 | 0.0 | 1.7 | 0.00 | 0.10 | 0.00 | 77 | 1010.1 |
| 20260510082817 | 60 | 273 | 0.9 | 2.6 | 0.00 | 0.09 | 0.00 | 77 | 1010.4 |
| 20260510082253 | 60 | 273 | 0.0 | 2.6 | 0.00 | 0.09 | 0.00 | 77 | 1010.3 |
| 20260510081751 | 60 | 273 | 0.9 | 2.6 | 0.00 | 0.09 | 0.00 | 76 | 1010.3 |
| 20260510081545 | 60 | 273 | 0.0 | 2.6 | 0.00 | 0.10 | 0.00 | 76 | 1009.8 |
| 20260510081254 | 60 | 291 | 0.9 | 2.6 | 0.00 | 0.10 | 0.00 | 76 | 1009.9 |
| 20260510080553 | 60 | 273 | 0.9 | 2.6 | 0.00 | 0.10 | 0.00 | 75 | 1009.8 |
| 20260510080106 | 60 | 273 | 0.0 | 1.7 | 0.00 | 0.10 | 0.00 | 75 | 1009.4 |
| 20260510080027 | 60 | 292 | 0.9 | 2.6 | 0.00 | 0.10 | 0.00 | 75 | 1009.8 |
| 20260510075505 | 60 | 273 | 0.9 | 2.6 | 0.00 | 0.10 | 0.00 | 75 | 1009.7 |
| 20260510074938 | 60 | 273 | 0.9 | 2.6 | 0.00 | 0.11 | 0.00 | 74 | 1009.5 |
| 20260510074638 | 61 | 273 | 0.9 | 2.6 | 0.00 | 0.11 | 0.00 | 74 | 1009.7 |
| 20260510074538 | 60 | 273 | 0.0 | 2.6 | 0.00 | 0.13 | 0.00 | 74 | 1009.1 |
| 20260510073915 | 61 | 290 | 0.9 | 3.5 | 0.00 | 0.11 | 0.00 | 74 | 1009.5 |
| 20260510073618 | 61 | 273 | 1.7 | 3.5 | 0.00 | 0.12 | 0.00 | 74 | 1009.6 |
| 20260510073020 | 61 | 273 | 0.9 | 3.5 | 0.00 | 0.13 | 0.00 | 73 | 1009.2 |
| 20260510072831 | 61 | 273 | 1.7 | 3.5 | 0.00 | 0.12 | 0.00 | 73 | 1009.7 |
| 20260510072329 | 62 | 273 | 1.7 | 3.5 | 0.00 | 0.12 | 0.00 | 72 | 1009.6 |
| 20260510071827 | 62 | 273 | 1.7 | 3.5 | 0.00 | 0.12 | 0.00 | 71 | 1009.6 |
| 20260510071539 | 62 | 273 | 0.9 | 3.5 | 0.00 | 0.13 | 0.00 | 70 | 1009.1 |
| 20260510071312 | 62 | 273 | 0.9 | 3.5 | 0.00 | 0.12 | 0.00 | 70 | 1009.6 |
| 20260510071036 | 63 | 286 | 0.9 | 3.5 | 0.00 | 0.13 | 0.00 | 69 | 1009.4 |
| 20260510070249 | 63 | 286 | 0.9 | 4.3 | 0.00 | 0.13 | 0.00 | 69 | 1009.5 |
| 20260510070025 | 62 | 286 | 0.0 | 4.3 | 0.00 | 0.13 | 0.00 | 69 | 1009.1 |
| 20260510065738 | 63 | 285 | 0.9 | 4.3 | 0.00 | 0.13 | 0.00 | 69 | 1009.5 |
| 20260510065237 | 63 | 285 | 1.7 | 3.5 | 0.00 | 0.14 | 0.00 | 68 | 1009.4 |
| 20260510065226 | 64 | 286 | 0.9 | 3.5 | 0.00 | 0.14 | 0.00 | 67 | 1009.4 |
| 20260510064511 | 63 | 286 | 0.9 | 2.6 | 0.00 | 0.15 | 0.00 | 67 | 1009.0 |
| 20260510064439 | 64 | 286 | 0.9 | 2.6 | 0.00 | 0.14 | 0.00 | 67 | 1009.5 |
| 20260510063710 | 64 | 286 | 0.9 | 2.6 | 0.00 | 0.14 | 0.00 | 67 | 1009.5 |
| 20260510063142 | 64 | 286 | 0.9 | 2.6 | 0.00 | 0.14 | 0.00 | 67 | 1009.5 |
| 20260510063016 | 63 | 286 | 0.9 | 2.6 | 0.00 | 0.15 | 0.00 | 67 | 1009.1 |
| 20260510062901 | 64 | 286 | 0.9 | 1.7 | 0.00 | 0.14 | 0.00 | 67 | 1009.6 |
| 20260510062349 | 64 | 286 | 0.9 | 2.6 | 0.00 | 0.14 | 0.00 | 67 | 1009.5 |
| 20260510061819 | 64 | 286 | 0.9 | 2.6 | 0.00 | 0.14 | 0.00 | 67 | 1009.6 |
| 20260510061033 | 64 | 286 | 0.9 | 2.6 | 0.00 | 0.15 | 0.00 | 67 | 1009.7 |
| 20260510060537 | 64 | 286 | 0.9 | 2.6 | 0.00 | 0.15 | 0.00 | 67 | 1009.7 |
| 20260510060047 | 63 | 286 | 0.9 | 2.6 | 0.00 | 0.15 | 0.00 | 67 | 1009.3 |
| 20260510060009 | 64 | 286 | 1.7 | 4.3 | 0.00 | 0.15 | 0.00 | 67 | 1009.7 |
| 20260510055446 | 63 | 273 | 1.7 | 4.3 | 0.00 | 0.15 | 0.00 | 69 | 1009.7 |
| 20260510054926 | 63 | 287 | 1.7 | 4.3 | 0.00 | 0.15 | 0.00 | 70 | 1009.6 |
| 20260510054536 | 62 | 286 | 0.9 | 4.3 | 0.00 | 0.16 | 0.00 | 70 | 1009.3 |
| 20260510054359 | 62 | 286 | 1.7 | 4.3 | 0.00 | 0.15 | 0.00 | 71 | 1009.7 |
| 20260510053830 | 62 | 285 | 1.7 | 2.6 | 0.00 | 0.16 | 0.00 | 70 | 1009.7 |
| 20260510053333 | 62 | 285 | 1.7 | 2.6 | 0.00 | 0.16 | 0.00 | 70 | 1009.6 |
| 20260510053048 | 62 | 285 | 0.9 | 3.5 | 0.00 | 0.16 | 0.00 | 69 | 1009.1 |
| 20260510052808 | 63 | 285 | 0.9 | 3.5 | 0.00 | 0.16 | 0.00 | 69 | 1009.5 |
| 20260510052526 | 63 | 286 | 0.9 | 2.6 | 0.00 | 0.16 | 0.00 | 69 | 1009.5 |
| 20260510051804 | 63 | 286 | 0.9 | 2.6 | 0.00 | 0.16 | 0.00 | 68 | 1009.6 |
| 20260510051526 | 62 | 286 | 0.0 | 2.6 | 0.00 | 0.16 | 0.00 | 68 | 1009.2 |
| 20260510051236 | 63 | 286 | 0.9 | 2.6 | 0.00 | 0.16 | 0.00 | 68 | 1009.5 |
| 20260510050948 | 63 | 286 | 0.9 | 2.6 | 0.00 | 0.16 | 0.00 | 68 | 1009.5 |
| 20260510050230 | 63 | 286 | 1.7 | 2.6 | 0.00 | 0.16 | 0.00 | 68 | 1009.6 |
| 20260510050003 | 62 | 286 | 0.9 | 2.6 | 0.00 | 0.18 | 0.00 | 68 | 1009.2 |
| 20260510045703 | 63 | 286 | 1.7 | 3.5 | 0.00 | 0.16 | 0.00 | 67 | 1009.5 |
| 20260510045422 | 63 | 286 | 1.7 | 3.5 | 0.00 | 0.16 | 0.00 | 67 | 1009.5 |
| 20260510044646 | 63 | 286 | 1.7 | 2.6 | 0.00 | 0.16 | 0.00 | 67 | 1009.5 |
| 20260510044503 | 63 | 286 | 0.9 | 2.6 | 0.00 | 0.18 | 0.00 | 66 | 1009.2 |
| 20260510044144 | 64 | 286 | 1.7 | 3.5 | 0.00 | 0.16 | 0.00 | 66 | 1009.6 |
| 20260510043644 | 64 | 286 | 0.9 | 3.5 | 0.00 | 0.17 | 0.00 | 66 | 1009.6 |
| 20260510043143 | 64 | 286 | 1.7 | 2.6 | 0.00 | 0.17 | 0.00 | 66 | 1009.6 |
| 20260510043029 | 63 | 286 | 0.9 | 2.6 | 0.00 | 0.18 | 0.00 | 66 | 1009.2 |
| 20260510042644 | 64 | 286 | 1.7 | 2.6 | 0.00 | 0.17 | 0.00 | 65 | 1009.6 |
| 20260510042140 | 64 | 286 | 0.9 | 2.6 | 0.00 | 0.17 | 0.00 | 65 | 1009.6 |
| 20260510041638 | 64 | 286 | 0.9 | 1.7 | 0.00 | 0.18 | 0.00 | 64 | 1009.5 |
| 20260510041606 | 64 | 286 | 0.0 | 1.7 | 0.00 | 0.18 | 0.00 | 64 | 1009.2 |
| 20260510041109 | 64 | 286 | 0.9 | 1.7 | 0.00 | 0.18 | 0.00 | 64 | 1009.5 |
| 20260510040829 | 64 | 286 | 0.0 | 1.7 | 0.00 | 0.18 | 0.00 | 64 | 1009.6 |
| 20260510040012 | 64 | 286 | 0.0 | 1.7 | 0.00 | 0.18 | 0.00 | 64 | 1009.2 |
| 20260510035606 | 64 | 286 | 0.9 | 1.7 | 0.00 | 0.18 | 0.18 | 64 | 1009.5 |
| 20260510035257 | 65 | 286 | 0.9 | 1.7 | 0.00 | 0.18 | 0.18 | 63 | 1009.5 |
| 20260510034528 | 64 | 286 | 0.0 | 2.6 | 0.00 | 0.18 | 0.18 | 63 | 1009.1 |
| 20260510034511 | 65 | 286 | 0.9 | 2.6 | 0.00 | 0.18 | 0.18 | 63 | 1009.5 |
| 20260510034008 | 65 | 286 | 0.9 | 2.6 | 0.00 | 0.18 | 0.18 | 62 | 1009.4 |
| 20260510033441 | 65 | 286 | 0.0 | 1.7 | 0.00 | 0.18 | 0.18 | 62 | 1009.4 |
| 20260510032914 | 65 | 286 | 0.0 | 0.9 | 0.00 | 0.18 | 0.18 | 62 | 1009.5 |
| 20260510032405 | 65 | 286 | 0.0 | 0.9 | 0.00 | 0.18 | 0.18 | 62 | 1009.4 |
| 20260510031901 | 65 | 286 | 0.0 | 0.9 | 0.00 | 0.18 | 0.18 | 61 | 1009.4 |
| 20260510031526 | 65 | 286 | 0.0 | 0.9 | 0.00 | 0.18 | 0.18 | 61 | 1009.0 |
| 20260510031359 | 65 | 286 | 0.0 | 1.7 | 0.00 | 0.18 | 0.18 | 61 | 1009.3 |
| 20260510030855 | 65 | 286 | 0.0 | 0.9 | 0.00 | 0.18 | 0.18 | 60 | 1009.3 |
| 20260510030353 | 65 | 286 | 0.0 | 1.7 | 0.00 | 0.18 | 0.18 | 60 | 1009.3 |
| 20260510030050 | 65 | 286 | 0.0 | 1.7 | 0.00 | 0.18 | 0.18 | 60 | 1008.9 |
| 20260510025849 | 65 | 286 | 0.0 | 0.9 | 0.00 | 0.18 | 0.18 | 60 | 1009.3 |
| 20260510025324 | 66 | 286 | 0.0 | 1.7 | 0.00 | 0.18 | 0.18 | 60 | 1009.3 |
| 20260510024755 | 66 | 286 | 0.0 | 1.7 | 0.00 | 0.18 | 0.18 | 59 | 1009.2 |
| 20260510024555 | 66 | 286 | 0.0 | 1.7 | 0.00 | 0.18 | 0.18 | 59 | 1008.8 |
| 20260510024254 | 66 | 286 | 0.9 | 1.7 | 0.00 | 0.18 | 0.18 | 59 | 1009.1 |
| 20260510023948 | 67 | 286 | 0.9 | 2.6 | 0.00 | 0.18 | 0.18 | 59 | 1009.0 |
| 20260510023200 | 67 | 286 | 0.9 | 2.6 | 0.00 | 0.18 | 0.18 | 58 | 1009.1 |
| 20260510023111 | 66 | 286 | 0.0 | 2.6 | 0.00 | 0.18 | 0.18 | 58 | 1008.7 |
| 20260510022922 | 67 | 286 | 0.9 | 4.3 | 0.00 | 0.18 | 0.18 | 58 | 1009.0 |
| 20260510022132 | 67 | 286 | 1.7 | 4.3 | 0.00 | 0.18 | 0.18 | 57 | 1008.9 |
| 20260510021604 | 67 | 286 | 1.7 | 4.3 | 0.00 | 0.18 | 0.18 | 57 | 1008.9 |
| 20260510021552 | 68 | 286 | 1.7 | 4.3 | 0.00 | 0.18 | 0.18 | 56 | 1008.6 |
| 20260510021512 | 67 | 286 | 0.9 | 4.3 | 0.00 | 0.18 | 0.18 | 57 | 1008.5 |
| 20260510020536 | 68 | 286 | 1.7 | 3.5 | 0.00 | 0.18 | 0.18 | 56 | 1008.7 |
| 20260510020232 | 68 | 286 | 1.7 | 6.1 | 0.00 | 0.18 | 0.18 | 55 | 1008.5 |
| 20260510020026 | 67 | 286 | 0.0 | 5.2 | 0.00 | 0.18 | 0.18 | 55 | 1008.2 |
| 20260510015506 | 68 | 286 | 1.7 | 6.1 | 0.00 | 0.18 | 0.18 | 56 | 1008.5 |
| 20260510014937 | 68 | 287 | 1.7 | 7.0 | 0.00 | 0.18 | 0.18 | 56 | 1008.4 |
| 20260510014516 | 67 | 286 | 1.7 | 7.0 | 0.00 | 0.18 | 0.18 | 56 | 1008.0 |
| 20260510014435 | 68 | 286 | 1.7 | 7.0 | 0.00 | 0.18 | 0.18 | 55 | 1008.3 |
| 20260510013933 | 68 | 286 | 1.7 | 4.3 | 0.00 | 0.18 | 0.18 | 56 | 1008.2 |
| 20260510013403 | 68 | 287 | 1.7 | 4.3 | 0.00 | 0.18 | 0.18 | 55 | 1008.1 |
| 20260510013049 | 68 | 288 | 1.7 | 5.2 | 0.00 | 0.18 | 0.18 | 55 | 1007.8 |
| 20260510012900 | 68 | 286 | 1.7 | 6.1 | 0.00 | 0.18 | 0.18 | 55 | 1008.0 |
| 20260510012335 | 69 | 286 | 1.7 | 6.1 | 0.00 | 0.18 | 0.18 | 55 | 1007.8 |
| 20260510011806 | 69 | 287 | 1.7 | 6.1 | 0.00 | 0.18 | 0.18 | 55 | 1007.9 |
| 20260510011606 | 68 | 287 | 0.9 | 5.2 | 0.00 | 0.18 | 0.18 | 55 | 1007.7 |
| 20260510011528 | 69 | 286 | 1.7 | 6.1 | 0.00 | 0.18 | 0.18 | 55 | 1007.9 |
| 20260510011000 | 69 | 288 | 1.7 | 6.1 | 0.00 | 0.18 | 0.18 | 54 | 1007.8 |
| 20260510010233 | 69 | 287 | 1.7 | 6.1 | 0.00 | 0.18 | 0.18 | 54 | 1007.8 |
| 20260510010008 | 69 | 287 | 1.7 | 5.2 | 0.00 | 0.18 | 0.18 | 54 | 1007.4 |
| 20260510005710 | 69 | 286 | 1.7 | 4.3 | 0.00 | 0.18 | 0.18 | 54 | 1007.6 |
| 20260510005155 | 70 | 286 | 1.7 | 4.3 | 0.00 | 0.18 | 0.18 | 53 | 1007.6 |
| 20260510004658 | 70 | 288 | 1.7 | 4.3 | 0.00 | 0.18 | 0.18 | 53 | 1007.4 |
| 20260510004518 | 70 | 288 | 1.7 | 4.3 | 0.00 | 0.18 | 0.18 | 53 | 1007.2 |
| 20260510004130 | 70 | 158 | 1.7 | 6.1 | 0.00 | 0.18 | 0.18 | 52 | 1007.4 |
| 20260510003631 | 71 | 194 | 1.7 | 6.1 | 0.00 | 0.18 | 0.18 | 51 | 1007.4 |
| 20260510003059 | 71 | 161 | 2.6 | 7.8 | 0.00 | 0.18 | 0.18 | 51 | 1007.2 |
| 20260510003021 | 71 | 160 | 1.7 | 7.8 | 0.00 | 0.18 | 0.18 | 51 | 1007.0 |
| 20260510002558 | 71 | 142 | 2.6 | 7.8 | 0.00 | 0.18 | 0.18 | 51 | 1007.2 |
| 20260510002034 | 71 | 189 | 2.6 | 7.8 | 0.00 | 0.18 | 0.18 | 51 | 1007.1 |
| 20260510001546 | 71 | 137 | 1.7 | 7.8 | 0.00 | 0.18 | 0.18 | 49 | 1006.7 |
| 20260510001529 | 72 | 137 | 2.6 | 7.8 | 0.00 | 0.18 | 0.18 | 49 | 1007.0 |
| 20260510001027 | 72 | 165 | 3.5 | 11.3 | 0.00 | 0.18 | 0.18 | 49 | 1007.0 |
| 20260510000458 | 73 | 167 | 3.5 | 11.3 | 0.00 | 0.18 | 0.18 | 49 | 1006.9 |
| 20260510000043 | 72 | 203 | 4.3 | 11.3 | 0.00 | 0.18 | 0.18 | 47 | 1006.5 |
| 20260509235958 | 73 | 142 | 3.5 | 11.3 | 0.00 | 0.18 | 0.18 | 47 | 1006.9 |
| 20260509235453 | 73 | 116 | 3.5 | 12.2 | 0.00 | 0.18 | 0.18 | 48 | 1006.8 |
| 20260509235208 | 73 | 157 | 3.5 | 12.2 | 0.00 | 0.18 | 0.18 | 47 | 1006.7 |
| 20260509234553 | 73 | 132 | 3.5 | 12.2 | 0.00 | 0.18 | 0.18 | 46 | 1006.4 |
| 20260509234422 | 73 | 97 | 4.3 | 13.9 | 0.00 | 0.18 | 0.18 | 46 | 1006.7 |
| 20260509233917 | 74 | 100 | 5.2 | 13.9 | 0.00 | 0.18 | 0.18 | 46 | 1006.7 |
| 20260509233418 | 74 | 82 | 4.3 | 13.0 | 0.00 | 0.18 | 0.18 | 46 | 1006.6 |
| 20260509233015 | 73 | 140 | 4.3 | 12.2 | 0.00 | 0.18 | 0.18 | 46 | 1006.3 |
| 20260509232851 | 74 | 182 | 3.5 | 8.7 | 0.00 | 0.18 | 0.18 | 47 | 1006.6 |
| 20260509232346 | 74 | 132 | 4.3 | 10.4 | 0.00 | 0.18 | 0.18 | 47 | 1006.6 |
| 20260509231819 | 74 | 226 | 4.3 | 11.3 | 0.00 | 0.18 | 0.18 | 46 | 1006.5 |
| 20260509231513 | 74 | 153 | 5.2 | 13.0 | 0.00 | 0.18 | 0.18 | 46 | 1006.2 |
| 20260509231318 | 74 | 205 | 4.3 | 13.0 | 0.00 | 0.18 | 0.18 | 46 | 1006.5 |
| 20260509230753 | 74 | 246 | 5.2 | 13.0 | 0.00 | 0.18 | 0.18 | 46 | 1006.5 |
| 20260509230254 | 74 | 185 | 4.3 | 13.0 | 0.00 | 0.18 | 0.18 | 46 | 1006.4 |
| 20260509230007 | 74 | 114 | 6.1 | 13.0 | 0.00 | 0.18 | 0.18 | 46 | 1006.1 |
| 20260509225733 | 74 | 174 | 4.3 | 10.4 | 0.00 | 0.18 | 0.18 | 47 | 1006.4 |
| 20260509225235 | 74 | 145 | 3.5 | 10.4 | 0.00 | 0.18 | 0.18 | 47 | 1006.4 |
| 20260509224712 | 74 | 103 | 4.3 | 12.2 | 0.00 | 0.18 | 0.18 | 47 | 1006.4 |
| 20260509224509 | 74 | 180 | 2.6 | 12.2 | 0.00 | 0.18 | 0.18 | 47 | 1006.1 |
| 20260509224209 | 74 | 214 | 5.2 | 13.0 | 0.00 | 0.18 | 0.18 | 47 | 1006.4 |
| 20260509223915 | 74 | 124 | 6.1 | 13.0 | 0.00 | 0.18 | 0.18 | 47 | 1006.4 |
| 20260509223153 | 74 | 118 | 6.1 | 16.5 | 0.00 | 0.18 | 0.18 | 46 | 1006.4 |
| 20260509223018 | 74 | 132 | 5.2 | 16.5 | 0.00 | 0.18 | 0.18 | 47 | 1006.1 |
| 20260509222629 | 74 | 97 | 5.2 | 16.5 | 0.00 | 0.18 | 0.18 | 47 | 1006.4 |
| 20260509222336 | 74 | 136 | 4.3 | 12.2 | 0.00 | 0.18 | 0.18 | 48 | 1006.4 |
| 20260509221539 | 74 | 207 | 5.2 | 13.0 | 0.00 | 0.18 | 0.18 | 49 | 1006.3 |
| 20260509221509 | 74 | 121 | 5.2 | 13.0 | 0.00 | 0.18 | 0.18 | 47 | 1006.4 |
| 20260509220519 | 74 | 115 | 5.2 | 16.5 | 0.00 | 0.18 | 0.18 | 47 | 1006.3 |
| 20260509220048 | 74 | 121 | 4.3 | 16.5 | 0.00 | 0.18 | 0.18 | 48 | 1006.1 |
| 20260509220019 | 74 | 119 | 5.2 | 16.5 | 0.00 | 0.18 | 0.18 | 48 | 1006.4 |
| 20260509215517 | 74 | 132 | 6.1 | 13.0 | 0.00 | 0.18 | 0.18 | 48 | 1006.4 |
| 20260509215019 | 74 | 156 | 5.2 | 10.4 | 0.00 | 0.18 | 0.18 | 48 | 1006.4 |
| 20260509214522 | 74 | 84 | 4.3 | 13.0 | 0.00 | 0.18 | 0.18 | 49 | 1006.2 |
| 20260509214505 | 74 | 102 | 5.2 | 13.0 | 0.00 | 0.18 | 0.18 | 49 | 1006.5 |
| 20260509214005 | 74 | 159 | 6.1 | 17.4 | 0.00 | 0.18 | 0.18 | 49 | 1006.4 |
| 20260509213506 | 74 | 99 | 6.1 | 17.4 | 0.00 | 0.18 | 0.18 | 48 | 1006.5 |
| 20260509213021 | 74 | 95 | 7.0 | 14.8 | 0.00 | 0.18 | 0.18 | 47 | 1006.3 |
| 20260509212947 | 74 | 90 | 6.1 | 14.8 | 0.00 | 0.18 | 0.18 | 47 | 1006.4 |
| 20260509212438 | 74 | 192 | 6.1 | 12.2 | 0.00 | 0.18 | 0.18 | 46 | 1006.5 |
| 20260509211541 | 74 | 111 | 5.2 | 11.3 | 0.00 | 0.18 | 0.18 | 48 | 1006.3 |
| 20260509211421 | 74 | 71 | 5.2 | 11.3 | 0.00 | 0.18 | 0.18 | 48 | 1006.5 |
| 20260509211147 | 74 | 107 | 5.2 | 10.4 | 0.00 | 0.18 | 0.18 | 47 | 1006.6 |
| 20260509210423 | 74 | 106 | 5.2 | 13.9 | 0.00 | 0.18 | 0.18 | 49 | 1006.5 |
| 20260509205900 | 74 | 111 | 5.2 | 13.9 | 0.00 | 0.18 | 0.18 | 48 | 1006.6 |
| 20260509205349 | 74 | 129 | 4.3 | 12.2 | 0.00 | 0.18 | 0.18 | 49 | 1006.6 |
| 20260509204847 | 74 | 220 | 4.3 | 12.2 | 0.00 | 0.18 | 0.18 | 48 | 1006.6 |
| 20260509204531 | 74 | 95 | 5.2 | 12.2 | 0.00 | 0.18 | 0.18 | 49 | 1006.4 |
| 20260509204346 | 74 | 138 | 4.3 | 17.4 | 0.00 | 0.18 | 0.18 | 49 | 1006.6 |
| 20260509203820 | 74 | 144 | 4.3 | 17.4 | 0.00 | 0.18 | 0.18 | 47 | 1006.7 |
| 20260509203319 | 74 | 104 | 4.3 | 11.3 | 0.00 | 0.18 | 0.18 | 49 | 1006.7 |
| 20260509203055 | 73 | 205 | 4.3 | 10.4 | 0.00 | 0.18 | 0.18 | 52 | 1006.5 |